IPG5 KLAX-KPHX

Flight info

Callsign IPG5
Flight time 1h 1m
Altitude 37000
Route DOTSS2 CNERY BLH HYDRR1
Aircraft B77W/H-SDE1E2E3FGHIJ2J3J4J5M1RWXY/LB1D1

Departure

Time 2026-04-21 01:36
Airport Los Angeles International Airport (KLAX)

Arrival

Time 2026-04-21 02:38
Airport Phoenix Sky Harbor International Airport (KPHX)
Time Latitude Longitude Altitude Speed Heading
2026-04-21 01:12 33.94485 -118.41602 127 ft 0 kts 83°
2026-04-21 01:21 33.94485 -118.41609 127 ft 2 kts 81°
2026-04-21 01:21 33.94481 -118.41627 127 ft 2 kts 66°
2026-04-21 01:21 33.94474 -118.41643 127 ft 2 kts 54°
2026-04-21 01:22 33.94464 -118.41656 126 ft 2 kts 44°
2026-04-21 01:22 33.94453 -118.41667 126 ft 2 kts 32°
2026-04-21 01:22 33.94439 -118.41676 125 ft 2 kts 21°
2026-04-21 01:22 33.94425 -118.41681 125 ft 2 kts
2026-04-21 01:23 33.94410 -118.41682 125 ft 2 kts 358°
2026-04-21 01:23 33.94395 -118.41681 124 ft 2 kts 350°
2026-04-21 01:23 33.94380 -118.41678 124 ft 2 kts 351°
2026-04-21 01:23 33.94365 -118.41676 124 ft 2 kts 352°
2026-04-21 01:24 33.94350 -118.41673 124 ft 2 kts 352°
2026-04-21 01:24 33.94336 -118.41670 123 ft 2 kts 352°
2026-04-21 01:24 33.94321 -118.41668 123 ft 2 kts 352°
2026-04-21 01:24 33.94306 -118.41666 123 ft 1 kts 353°
2026-04-21 01:25 33.94305 -118.41666 123 ft 0 kts 353°
2026-04-21 01:27 33.94333 -118.41676 123 ft 7 kts 327°
2026-04-21 01:27 33.94353 -118.41760 123 ft 14 kts 268°
2026-04-21 01:27 33.94299 -118.41861 123 ft 17 kts 189°
2026-04-21 01:28 33.94175 -118.41850 123 ft 18 kts 173°
2026-04-21 01:28 33.94049 -118.41834 123 ft 18 kts 175°
2026-04-21 01:28 33.93923 -118.41815 125 ft 17 kts 172°
2026-04-21 01:28 33.93809 -118.41797 127 ft 15 kts 173°
2026-04-21 01:29 33.93726 -118.41775 128 ft 9 kts 143°
2026-04-21 01:29 33.93707 -118.41705 129 ft 9 kts 90°
2026-04-21 01:29 33.93714 -118.41613 131 ft 13 kts 84°
2026-04-21 01:29 33.93725 -118.41489 132 ft 17 kts 84°
2026-04-21 01:30 33.93740 -118.41328 133 ft 20 kts 81°
2026-04-21 01:30 33.93763 -118.41140 133 ft 24 kts 82°
2026-04-21 01:30 33.93788 -118.40920 133 ft 26 kts 83°
2026-04-21 01:30 33.93813 -118.40697 133 ft 27 kts 83°
2026-04-21 01:31 33.93837 -118.40470 129 ft 26 kts 83°
2026-04-21 01:31 33.93856 -118.40284 127 ft 19 kts 83°
2026-04-21 01:31 33.93872 -118.40124 126 ft 19 kts 85°
2026-04-21 01:31 33.93885 -118.39951 122 ft 21 kts 84°
2026-04-21 01:32 33.93904 -118.39766 119 ft 23 kts 82°
2026-04-21 01:32 33.93927 -118.39571 117 ft 23 kts 82°
2026-04-21 01:32 33.93946 -118.39370 115 ft 24 kts 84°
2026-04-21 01:32 33.93966 -118.39164 114 ft 24 kts 83°
2026-04-21 01:33 33.93989 -118.38953 111 ft 25 kts 85°
2026-04-21 01:33 33.94008 -118.38738 111 ft 25 kts 83°
2026-04-21 01:33 33.94033 -118.38525 111 ft 25 kts 82°
2026-04-21 01:33 33.94056 -118.38309 107 ft 26 kts 84°
2026-04-21 01:34 33.94072 -118.38124 107 ft 15 kts 84°
2026-04-21 01:34 33.94075 -118.38057 107 ft 0 kts 101°
2026-04-21 01:34 33.94075 -118.38056 107 ft 0 kts 101°
2026-04-21 01:35 33.94075 -118.38055 107 ft 1 kts 102°
2026-04-21 01:35 33.94058 -118.38024 107 ft 6 kts 140°
2026-04-21 01:35 33.94006 -118.38023 107 ft 8 kts 220°
2026-04-21 01:35 33.93967 -118.38179 107 ft 42 kts 261°
2026-04-21 01:36 33.93888 -118.38955 111 ft 145 kts 263°
2026-04-21 01:36 33.93742 -118.40439 605 ft 202 kts 263°
2026-04-21 01:36 33.93579 -118.42057 1948 ft 195 kts 263°
2026-04-21 01:36 33.93410 -118.43673 2798 ft 204 kts 263°
2026-04-21 01:37 33.93162 -118.45412 3412 ft 226 kts 253°
2026-04-21 01:37 33.92343 -118.47245 3643 ft 266 kts 231°
2026-04-21 01:37 33.91185 -118.48945 4853 ft 266 kts 229°
2026-04-21 01:37 33.90001 -118.50641 5984 ft 270 kts 227°
2026-04-21 01:38 33.88782 -118.52344 7076 ft 274 kts 227°
2026-04-21 01:38 33.87547 -118.54067 8161 ft 276 kts 223°
2026-04-21 01:38 33.85989 -118.55360 9160 ft 277 kts 201°
2026-04-21 01:38 33.84117 -118.55833 9794 ft 280 kts 180°
2026-04-21 01:39 33.82179 -118.55512 9963 ft 280 kts 168°
2026-04-21 01:39 33.80286 -118.54972 9978 ft 280 kts 167°
2026-04-21 01:39 33.78276 -118.54402 10308 ft 309 kts 167°
2026-04-21 01:39 33.76133 -118.53732 11037 ft 327 kts 162°
2026-04-21 01:40 33.73994 -118.52658 11830 ft 342 kts 154°
2026-04-21 01:40 33.71936 -118.51131 12600 ft 358 kts 145°
2026-04-21 01:40 33.69989 -118.49124 12952 ft 377 kts 136°
2026-04-21 01:40 33.68285 -118.46660 12974 ft 383 kts 126°
2026-04-21 01:41 33.66986 -118.43877 12974 ft 385 kts 116°
2026-04-21 01:41 33.66078 -118.40851 12981 ft 387 kts 110°
2026-04-21 01:41 33.65264 -118.37788 12977 ft 387 kts 110°
2026-04-21 01:41 33.64632 -118.34643 12976 ft 389 kts 101°
2026-04-21 01:42 33.64429 -118.31374 12975 ft 391 kts 93°
2026-04-21 01:42 33.64432 -118.28131 12975 ft 391 kts 92°
2026-04-21 01:42 33.64443 -118.24867 12988 ft 399 kts 92°
2026-04-21 01:42 33.64451 -118.21453 13855 ft 409 kts 92°
2026-04-21 01:43 33.64457 -118.18085 15304 ft 404 kts 92°
2026-04-21 01:43 33.64460 -118.14757 16511 ft 405 kts 92°
2026-04-21 01:43 33.64460 -118.11380 17375 ft 414 kts 92°
2026-04-21 01:43 33.64458 -118.07873 18263 ft 422 kts 92°
2026-04-21 01:44 33.64456 -118.04354 19233 ft 428 kts 92°
2026-04-21 01:44 33.64453 -118.00779 20171 ft 433 kts 93°
2026-04-21 01:44 33.64448 -117.97163 21058 ft 440 kts 93°
2026-04-21 01:44 33.64441 -117.93452 21922 ft 446 kts 93°
2026-04-21 01:45 33.64434 -117.89719 22758 ft 452 kts 93°
2026-04-21 01:45 33.64424 -117.85898 23560 ft 459 kts 93°
2026-04-21 01:45 33.64392 -117.82066 24410 ft 463 kts 96°
2026-04-21 01:45 33.63995 -117.78253 25188 ft 464 kts 104°
2026-04-21 01:46 33.63182 -117.74524 25940 ft 467 kts 109°
2026-04-21 01:46 33.62268 -117.70785 26723 ft 472 kts 109°
2026-04-21 01:46 33.61324 -117.66961 27498 ft 477 kts 109°
2026-04-21 01:46 33.60373 -117.63110 28256 ft 481 kts 109°
2026-04-21 01:47 33.59425 -117.59276 28981 ft 486 kts 109°
2026-04-21 01:47 33.58453 -117.55347 29768 ft 489 kts 109°
2026-04-21 01:47 33.57495 -117.51479 30673 ft 487 kts 109°
2026-04-21 01:47 33.56545 -117.47643 31613 ft 484 kts 110°
2026-04-21 01:48 33.55586 -117.43780 32546 ft 479 kts 109°
2026-04-21 01:48 33.54634 -117.39952 33285 ft 478 kts 110°
2026-04-21 01:48 33.53691 -117.36169 33924 ft 478 kts 109°
2026-04-21 01:48 33.52735 -117.32337 34371 ft 479 kts 110°
2026-04-21 01:49 33.51780 -117.28519 34668 ft 483 kts 110°
2026-04-21 01:49 33.50891 -117.24626 34871 ft 491 kts 105°
2026-04-21 01:49 33.50453 -117.20526 35140 ft 499 kts 96°
2026-04-21 01:49 33.50361 -117.16398 35467 ft 502 kts 94°
2026-04-21 01:50 33.50311 -117.12180 35849 ft 504 kts 94°
2026-04-21 01:50 33.50261 -117.08010 36188 ft 507 kts 94°
2026-04-21 01:50 33.50207 -117.03790 36457 ft 512 kts 94°
2026-04-21 01:50 33.50150 -116.99499 36694 ft 516 kts 94°
2026-04-21 01:51 33.50090 -116.95167 36975 ft 519 kts 94°
2026-04-21 01:51 33.50029 -116.90880 37007 ft 523 kts 94°
2026-04-21 01:51 33.49900 -116.82214 37054 ft 519 kts 94°
2026-04-21 01:52 33.49691 -116.69254 37055 ft 520 kts 94°
2026-04-21 01:53 33.49545 -116.60628 37074 ft 518 kts 94°
2026-04-21 01:53 33.49392 -116.52000 37071 ft 518 kts 94°
2026-04-21 01:54 33.49233 -116.43402 37083 ft 521 kts 94°
2026-04-21 01:54 33.49098 -116.34767 37066 ft 517 kts 94°
2026-04-21 01:55 33.48972 -116.26166 37013 ft 518 kts 94°
2026-04-21 01:55 33.48837 -116.17507 36996 ft 518 kts 94°
2026-04-21 01:56 33.48697 -116.08899 36959 ft 518 kts 94°
2026-04-21 01:56 33.49587 -116.00334 36922 ft 522 kts 76°
2026-04-21 01:57 33.51909 -115.92077 36922 ft 532 kts 72°
2026-04-21 01:57 33.54401 -115.83572 36951 ft 548 kts 72°
2026-04-21 01:58 33.56933 -115.74895 36981 ft 554 kts 72°
2026-04-21 01:58 33.59459 -115.66210 37001 ft 553 kts 72°
2026-04-21 01:59 33.61995 -115.57458 37015 ft 555 kts 72°
2026-04-21 01:59 33.63522 -115.48508 37013 ft 548 kts 89°
2026-04-21 02:00 33.63034 -115.39435 37002 ft 544 kts 101°
2026-04-21 02:00 33.62077 -115.30465 36966 ft 543 kts 99°
2026-04-21 02:01 33.61424 -115.21445 36968 ft 545 kts 97°
2026-04-21 02:01 33.60939 -115.12373 36970 ft 546 kts 96°
2026-04-21 02:02 33.60557 -115.03273 36954 ft 545 kts 95°
2026-04-21 02:02 33.60227 -114.94170 36969 ft 544 kts 95°
2026-04-21 02:02 33.60078 -114.89730 36940 ft 530 kts 95°
2026-04-21 02:03 33.59936 -114.85357 36946 ft 518 kts 95°
2026-04-21 02:03 33.59800 -114.81111 36801 ft 508 kts 95°
2026-04-21 02:03 33.59591 -114.76889 36289 ft 504 kts 100°
2026-04-21 02:03 33.58973 -114.72807 35686 ft 502 kts 106°
2026-04-21 02:04 33.58193 -114.68739 35319 ft 497 kts 106°
2026-04-21 02:04 33.57418 -114.64756 35116 ft 488 kts 106°
2026-04-21 02:04 33.56645 -114.60791 34804 ft 482 kts 106°
2026-04-21 02:04 33.55888 -114.56917 34407 ft 478 kts 106°
2026-04-21 02:05 33.55131 -114.53046 33949 ft 474 kts 106°
2026-04-21 02:05 33.54388 -114.49249 33578 ft 465 kts 106°
2026-04-21 02:05 33.53661 -114.45536 33064 ft 454 kts 106°
2026-04-21 02:05 33.52945 -114.41882 32167 ft 448 kts 106°
2026-04-21 02:06 33.52239 -114.38296 31138 ft 445 kts 106°
2026-04-21 02:06 33.51532 -114.34709 30151 ft 440 kts 107°
2026-04-21 02:06 33.50837 -114.31182 29237 ft 435 kts 107°
2026-04-21 02:06 33.50141 -114.27656 28363 ft 429 kts 107°
2026-04-21 02:07 33.49459 -114.24208 27514 ft 423 kts 107°
2026-04-21 02:07 33.48792 -114.20839 26730 ft 416 kts 107°
2026-04-21 02:07 33.48127 -114.17486 25882 ft 412 kts 107°
2026-04-21 02:07 33.47461 -114.14136 25204 ft 409 kts 106°
2026-04-21 02:08 33.46807 -114.10853 24977 ft 401 kts 106°
2026-04-21 02:08 33.46154 -114.07577 24972 ft 408 kts 106°
2026-04-21 02:08 33.45477 -114.04202 24967 ft 408 kts 106°
2026-04-21 02:08 33.44807 -114.00861 24972 ft 408 kts 106°
2026-04-21 02:09 33.44142 -113.97550 24978 ft 408 kts 106°
2026-04-21 02:09 33.43473 -113.94225 24976 ft 407 kts 106°
2026-04-21 02:09 33.42800 -113.90872 24975 ft 408 kts 106°
2026-04-21 02:09 33.42126 -113.87514 24972 ft 408 kts 106°
2026-04-21 02:10 33.41459 -113.84194 24973 ft 408 kts 106°
2026-04-21 02:10 33.40778 -113.80814 24969 ft 408 kts 106°
2026-04-21 02:10 33.40117 -113.77531 24815 ft 400 kts 106°
2026-04-21 02:10 33.39458 -113.74266 24205 ft 400 kts 106°
2026-04-21 02:11 33.38795 -113.70991 23447 ft 403 kts 106°
2026-04-21 02:11 33.38126 -113.67691 22879 ft 401 kts 106°
2026-04-21 02:11 33.37466 -113.64434 22447 ft 396 kts 106°
2026-04-21 02:11 33.36811 -113.61208 21987 ft 392 kts 106°
2026-04-21 02:12 33.36163 -113.58021 21487 ft 389 kts 106°
2026-04-21 02:12 33.35515 -113.54838 20976 ft 387 kts 105°
2026-04-21 02:12 33.34879 -113.51720 20511 ft 383 kts 105°
2026-04-21 02:12 33.34243 -113.48607 20048 ft 379 kts 105°
2026-04-21 02:13 33.33615 -113.45537 19554 ft 377 kts 105°
2026-04-21 02:13 33.33067 -113.42457 19084 ft 374 kts 103°
2026-04-21 02:13 33.32543 -113.39352 18612 ft 371 kts 103°
2026-04-21 02:13 33.32030 -113.36327 18162 ft 368 kts 103°
2026-04-21 02:14 33.31513 -113.33302 17711 ft 364 kts 103°
2026-04-21 02:14 33.31004 -113.30342 17275 ft 361 kts 103°
2026-04-21 02:14 33.30496 -113.27402 16826 ft 358 kts 103°
2026-04-21 02:14 33.29984 -113.24444 16371 ft 355 kts 103°
2026-04-21 02:15 33.29498 -113.21572 15941 ft 352 kts 102°
2026-04-21 02:15 33.29086 -113.18672 15503 ft 349 kts 101°
2026-04-21 02:15 33.28688 -113.15805 15084 ft 346 kts 101°
2026-04-21 02:15 33.28290 -113.12975 14955 ft 342 kts 101°
2026-04-21 02:16 33.27884 -113.10132 14944 ft 345 kts 101°
2026-04-21 02:16 33.27511 -113.07278 14930 ft 345 kts 96°
2026-04-21 02:16 33.27477 -113.04430 14850 ft 337 kts 90°
2026-04-21 02:16 33.27551 -113.01650 14634 ft 328 kts 90°
2026-04-21 02:17 33.27631 -112.98906 14301 ft 323 kts 90°
2026-04-21 02:17 33.27703 -112.96214 13906 ft 321 kts 90°
2026-04-21 02:17 33.27771 -112.93581 13498 ft 319 kts 90°
2026-04-21 02:17 33.27838 -112.90900 13115 ft 316 kts 91°
2026-04-21 02:18 33.27902 -112.88277 12723 ft 314 kts 91°
2026-04-21 02:18 33.27965 -112.85706 12611 ft 302 kts 91°
2026-04-21 02:18 33.28026 -112.83242 12412 ft 295 kts 91°
2026-04-21 02:18 33.28109 -112.80798 12054 ft 294 kts 87°
2026-04-21 02:19 33.28363 -112.78339 11651 ft 295 kts 85°
2026-04-21 02:19 33.28624 -112.75913 11308 ft 293 kts 85°
2026-04-21 02:19 33.28865 -112.73492 11063 ft 289 kts 85°
2026-04-21 02:19 33.29094 -112.71094 11030 ft 291 kts 86°
2026-04-21 02:20 33.29322 -112.68666 11025 ft 291 kts 85°
2026-04-21 02:20 33.29549 -112.66247 11027 ft 291 kts 86°
2026-04-21 02:20 33.29773 -112.63854 11042 ft 292 kts 86°
2026-04-21 02:20 33.29998 -112.61434 11033 ft 291 kts 86°
2026-04-21 02:21 33.30224 -112.59006 11033 ft 291 kts 86°
2026-04-21 02:21 33.30449 -112.56581 11037 ft 292 kts 86°
2026-04-21 02:21 33.30675 -112.54147 11035 ft 291 kts 86°
2026-04-21 02:21 33.30894 -112.51788 10987 ft 280 kts 86°
2026-04-21 02:22 33.31105 -112.49506 10947 ft 267 kts 86°
2026-04-21 02:22 33.31305 -112.47352 10899 ft 254 kts 86°
2026-04-21 02:22 33.31501 -112.45184 10918 ft 286 kts 86°
2026-04-21 02:22 33.31731 -112.42600 10944 ft 326 kts 85°
2026-04-21 02:23 33.31984 -112.39848 10952 ft 336 kts 85°
2026-04-21 02:23 33.32238 -112.37114 10936 ft 321 kts 85°
2026-04-21 02:23 33.32479 -112.34501 10917 ft 307 kts 86°
2026-04-21 02:23 33.32708 -112.32004 10847 ft 298 kts 86°
2026-04-21 02:24 33.32932 -112.29559 10695 ft 292 kts 86°
2026-04-21 02:24 33.33150 -112.27155 10512 ft 289 kts 86°
2026-04-21 02:24 33.33366 -112.24777 10325 ft 287 kts 86°
2026-04-21 02:24 33.33582 -112.22395 10129 ft 282 kts 86°
2026-04-21 02:25 33.33788 -112.20122 9945 ft 275 kts 86°
2026-04-21 02:25 33.33991 -112.17871 9763 ft 268 kts 86°
2026-04-21 02:25 33.34189 -112.15679 9582 ft 261 kts 86°
2026-04-21 02:25 33.34382 -112.13535 9413 ft 254 kts 86°
2026-04-21 02:26 33.34568 -112.11455 9243 ft 247 kts 87°
2026-04-21 02:26 33.34736 -112.09431 9078 ft 240 kts 90°
2026-04-21 02:26 33.34749 -112.07482 8871 ft 237 kts 93°
2026-04-21 02:26 33.34719 -112.05496 8600 ft 235 kts 93°
2026-04-21 02:27 33.34692 -112.03549 8338 ft 234 kts 93°
2026-04-21 02:27 33.34667 -112.01628 8087 ft 231 kts 93°
2026-04-21 02:27 33.34642 -111.99695 7830 ft 229 kts 93°
2026-04-21 02:27 33.34618 -111.97797 7580 ft 228 kts 93°
2026-04-21 02:28 33.34593 -111.95908 7329 ft 226 kts 93°
2026-04-21 02:28 33.34569 -111.94050 7068 ft 225 kts 93°
2026-04-21 02:28 33.34537 -111.92183 6818 ft 222 kts 99°
2026-04-21 02:28 33.33967 -111.90512 6526 ft 218 kts 126°
2026-04-21 02:29 33.33018 -111.89092 6271 ft 217 kts 129°
2026-04-21 02:29 33.32053 -111.87730 6029 ft 215 kts 129°
2026-04-21 02:29 33.31074 -111.86355 5744 ft 215 kts 129°
2026-04-21 02:29 33.30106 -111.85007 5503 ft 214 kts 129°
2026-04-21 02:30 33.29125 -111.83643 5229 ft 214 kts 129°
2026-04-21 02:30 33.28148 -111.82291 4963 ft 214 kts 129°
2026-04-21 02:30 33.27174 -111.80951 4694 ft 214 kts 129°
2026-04-21 02:30 33.26197 -111.79608 4444 ft 213 kts 129°
2026-04-21 02:31 33.25400 -111.78136 4143 ft 212 kts 105°
2026-04-21 02:31 33.25430 -111.76419 3965 ft 208 kts 70°
2026-04-21 02:31 33.26331 -111.75031 3954 ft 220 kts 39°
2026-04-21 02:31 33.27753 -111.74309 3950 ft 229 kts
2026-04-21 02:32 33.29389 -111.74348 3967 ft 234 kts 360°
2026-04-21 02:32 33.30998 -111.74513 3969 ft 234 kts 359°
2026-04-21 02:32 33.32644 -111.74685 3968 ft 234 kts 359°
2026-04-21 02:32 33.34271 -111.74860 3968 ft 234 kts 359°
2026-04-21 02:33 33.35853 -111.75266 3949 ft 237 kts 336°
2026-04-21 02:33 33.37289 -111.76300 3967 ft 241 kts 329°
2026-04-21 02:33 33.38682 -111.77391 3841 ft 236 kts 329°
2026-04-21 02:33 33.40071 -111.78481 3545 ft 237 kts 329°
2026-04-21 02:34 33.41440 -111.79548 3320 ft 235 kts 329°
2026-04-21 02:34 33.42818 -111.80628 3049 ft 235 kts 329°
2026-04-21 02:34 33.44128 -111.81788 2960 ft 229 kts 313°
2026-04-21 02:34 33.44805 -111.83420 2944 ft 217 kts 277°
2026-04-21 02:35 33.44600 -111.85145 2951 ft 206 kts 240°
2026-04-21 02:35 33.43938 -111.86656 2964 ft 206 kts 253°
2026-04-21 02:35 33.43937 -111.88326 2878 ft 199 kts 278°
2026-04-21 02:35 33.44062 -111.89936 2643 ft 185 kts 269°
2026-04-21 02:36 33.44049 -111.91399 2413 ft 171 kts 270°
2026-04-21 02:36 33.44059 -111.92813 2196 ft 164 kts 270°
2026-04-21 02:36 33.44062 -111.94160 1989 ft 162 kts 269°
2026-04-21 02:36 33.44060 -111.95516 1776 ft 161 kts 270°
2026-04-21 02:37 33.44065 -111.96851 1577 ft 161 kts 270°
2026-04-21 02:37 33.44074 -111.98169 1360 ft 159 kts 270°
2026-04-21 02:37 33.44078 -111.99515 1164 ft 158 kts 270°
2026-04-21 02:37 33.44081 -112.00720 1142 ft 127 kts 270°
2026-04-21 02:38 33.44081 -112.01595 1136 ft 83 kts 270°
2026-04-21 02:38 33.44078 -112.01825 1133 ft 7 kts 269°
2026-04-21 02:38 33.44077 -112.01905 1133 ft 14 kts 270°
2026-04-21 02:38 33.44057 -112.02010 1133 ft 15 kts 232°
2026-04-21 02:39 33.44033 -112.02046 1133 ft 8 kts 232°
2026-04-21 02:39 33.43968 -112.02116 1133 ft 12 kts 198°
2026-04-21 02:39 33.43900 -112.02043 1133 ft 18 kts 89°
2026-04-21 02:39 33.43899 -112.01860 1133 ft 24 kts 92°
2026-04-21 02:40 33.43903 -112.01639 1136 ft 28 kts 85°
2026-04-21 02:40 33.43897 -112.01445 1137 ft 22 kts 94°
2026-04-21 02:40 33.43896 -112.01271 1139 ft 21 kts 88°
2026-04-21 02:40 33.43902 -112.01090 1139 ft 0 kts 88°
2026-04-21 02:41 33.43890 -112.01047 1139 ft 10 kts 133°
2026-04-21 02:41 33.43816 -112.00977 1139 ft 13 kts 130°
2026-04-21 02:41 33.43800 -112.00951 1139 ft 0 kts 124°